Time,TemperatureF,DewpointF,PressureIn,WindDirection,WindDirectionDegrees,WindSpeedMPH,WindSpeedGustMPH,Humidity,HourlyPrecipIn,Conditions,Clouds,dailyrainin,SolarRadiationWatts/m^2,SoftwareType,DateUTC
2013-05-11 00:13:00,47.8,46.0,30.14,ENE,64,0.0,0.0,93,0.00,,,0.00,0,weatherlink.com 1.10,2013-05-11 07:13:00,
2013-05-11 00:28:00,47.9,46.0,30.14,ENE,64,0.0,0.0,93,0.00,,,0.00,0,weatherlink.com 1.10,2013-05-11 07:28:00,
2013-05-11 00:43:00,48.0,46.0,30.14,ENE,64,0.0,0.0,93,0.00,,,0.00,0,weatherlink.com 1.10,2013-05-11 07:43:00,
2013-05-11 00:58:00,47.3,46.0,30.13,ENE,64,0.0,0.0,94,0.00,,,0.00,0,weatherlink.com 1.10,2013-05-11 07:58:00,
2013-05-11 01:13:00,47.9,46.0,30.13,ENE,64,0.0,0.0,94,0.00,,,0.00,0,weatherlink.com 1.10,2013-05-11 08:13:00,
2013-05-11 01:28:00,47.2,46.0,30.13,ENE,64,0.0,0.0,94,0.00,,,0.00,0,weatherlink.com 1.10,2013-05-11 08:28:00,
2013-05-11 01:43:00,46.5,45.0,30.13,ENE,64,0.0,0.0,94,0.00,,,0.00,0,weatherlink.com 1.10,2013-05-11 08:43:00,
2013-05-11 01:58:00,46.1,45.0,30.12,ENE,64,0.0,0.0,94,0.00,,,0.00,0,weatherlink.com 1.10,2013-05-11 08:58:00,
2013-05-11 02:13:00,45.8,44.0,30.12,ENE,64,0.0,0.0,94,0.00,,,0.00,0,weatherlink.com 1.10,2013-05-11 09:13:00,
2013-05-11 02:28:00,45.9,44.0,30.11,ENE,64,0.0,0.0,94,0.00,,,0.00,0,weatherlink.com 1.10,2013-05-11 09:28:00,
2013-05-11 02:43:00,46.0,44.0,30.11,ENE,64,0.0,0.0,94,0.00,,,0.00,0,weatherlink.com 1.10,2013-05-11 09:43:00,
2013-05-11 02:58:00,46.8,45.0,30.11,ENE,64,0.0,0.0,94,0.00,,,0.00,0,weatherlink.com 1.10,2013-05-11 09:58:00,
2013-05-11 03:13:00,47.0,45.0,30.11,ENE,64,0.0,0.0,94,0.00,,,0.00,0,weatherlink.com 1.10,2013-05-11 10:13:00,
2013-05-11 03:28:00,46.4,45.0,30.11,ENE,64,0.0,0.0,94,0.00,,,0.00,0,weatherlink.com 1.10,2013-05-11 10:28:00,
2013-05-11 03:43:00,46.5,45.0,30.10,ENE,64,0.0,0.0,94,0.00,,,0.00,0,weatherlink.com 1.10,2013-05-11 10:43:00,
2013-05-11 03:58:00,46.9,45.0,30.10,ENE,64,0.0,0.0,94,0.00,,,0.00,0,weatherlink.com 1.10,2013-05-11 10:58:00,
2013-05-11 04:13:00,46.7,45.0,30.10,ENE,64,0.0,0.0,95,0.00,,,0.00,0,weatherlink.com 1.10,2013-05-11 11:13:00,
2013-05-11 04:28:00,46.9,46.0,30.10,ENE,64,0.0,0.0,95,0.00,,,0.00,0,weatherlink.com 1.10,2013-05-11 11:28:00,
2013-05-11 04:43:00,47.0,46.0,30.10,ENE,64,0.0,1.0,95,0.00,,,0.00,0,weatherlink.com 1.10,2013-05-11 11:43:00,
2013-05-11 04:58:00,47.0,46.0,30.10,ENE,64,0.0,0.0,95,0.00,,,0.00,0,weatherlink.com 1.10,2013-05-11 11:58:00,
2013-05-11 05:14:00,47.1,46.0,30.09,ENE,64,0.0,0.0,95,0.00,,,0.00,0,weatherlink.com 1.10,2013-05-11 12:14:00,
2013-05-11 05:29:00,47.1,46.0,30.09,ENE,64,0.0,0.0,95,0.00,,,0.00,0,weatherlink.com 1.10,2013-05-11 12:29:00,
2013-05-11 05:44:00,47.2,46.0,30.09,ENE,64,0.0,1.0,95,0.00,,,0.00,0,weatherlink.com 1.10,2013-05-11 12:44:00,
2013-05-11 05:59:00,47.3,46.0,30.09,ENE,64,0.0,1.0,95,0.00,,,0.00,0,weatherlink.com 1.10,2013-05-11 12:59:00,
2013-05-11 06:14:00,47.4,46.0,30.09,ENE,64,0.0,0.0,95,0.00,,,0.00,0,weatherlink.com 1.10,2013-05-11 13:14:00,
2013-05-11 06:29:00,47.2,46.0,30.09,ENE,64,0.0,1.0,95,0.00,,,0.00,11,weatherlink.com 1.10,2013-05-11 13:29:00,
2013-05-11 06:44:00,47.2,46.0,30.10,ENE,64,0.0,0.0,95,0.00,,,0.00,21,weatherlink.com 1.10,2013-05-11 13:44:00,
2013-05-11 06:59:00,47.5,46.0,30.10,ENE,64,0.0,1.0,95,0.00,,,0.00,35,weatherlink.com 1.10,2013-05-11 13:59:00,
2013-05-11 07:14:00,47.6,46.0,30.10,WNW,282,0.0,3.0,95,0.00,,,0.00,51,weatherlink.com 1.10,2013-05-11 14:14:00,
2013-05-11 07:29:00,47.6,46.0,30.10,WNW,282,0.0,0.0,95,0.00,,,0.00,56,weatherlink.com 1.10,2013-05-11 14:29:00,
2013-05-11 07:44:00,48.2,47.0,30.11,West,281,0.0,0.0,95,0.00,,,0.00,102,weatherlink.com 1.10,2013-05-11 14:44:00,
2013-05-11 07:59:00,49.0,48.0,30.11,NW,313,0.0,1.0,95,0.00,,,0.00,162,weatherlink.com 1.10,2013-05-11 14:59:00,
2013-05-11 08:14:00,49.6,48.0,30.11,ENE,74,1.0,3.0,95,0.00,,,0.00,178,weatherlink.com 1.10,2013-05-11 15:14:00,
2013-05-11 08:29:00,49.9,49.0,30.11,ENE,74,0.0,1.0,95,0.00,,,0.00,204,weatherlink.com 1.10,2013-05-11 15:29:00,
2013-05-11 08:44:00,50.6,49.0,30.12,NNW,328,0.0,2.0,95,0.00,,,0.00,236,weatherlink.com 1.10,2013-05-11 15:44:00,
2013-05-11 08:59:00,51.7,50.0,30.12,North,9,0.0,3.0,95,0.00,,,0.00,496,weatherlink.com 1.10,2013-05-11 15:59:00,
2013-05-11 09:14:00,53.6,52.0,30.11,NE,53,0.0,3.0,95,0.00,,,0.00,513,weatherlink.com 1.10,2013-05-11 16:14:00,
2013-05-11 09:29:00,56.1,54.0,30.11,NNE,23,1.0,5.0,94,0.00,,,0.00,563,weatherlink.com 1.10,2013-05-11 16:29:00,
2013-05-11 09:44:00,58.7,55.0,30.11,NNE,15,0.0,4.0,88,0.00,,,0.00,587,weatherlink.com 1.10,2013-05-11 16:44:00,
2013-05-11 09:59:00,61.0,55.0,30.11,NNE,32,0.0,5.0,80,0.00,,,0.00,615,weatherlink.com 1.10,2013-05-11 16:59:00,
2013-05-11 10:14:00,62.0,54.0,30.11,NNE,32,0.0,4.0,76,0.00,,,0.00,671,weatherlink.com 1.10,2013-05-11 17:14:00,
2013-05-11 10:29:00,64.4,56.0,30.10,NW,315,0.0,3.0,73,0.00,,,0.00,722,weatherlink.com 1.10,2013-05-11 17:29:00,
2013-05-11 10:45:00,66.5,57.0,30.10,North,355,2.0,3.0,71,0.00,,,0.00,758,weatherlink.com 1.10,2013-05-11 17:45:00,
2013-05-11 11:00:00,67.6,56.0,30.10,ENE,65,0.0,4.0,67,0.00,,,0.00,796,weatherlink.com 1.10,2013-05-11 18:00:00,
2013-05-11 11:15:00,70.3,58.0,30.10,North,5,0.0,5.0,66,0.00,,,0.00,817,weatherlink.com 1.10,2013-05-11 18:15:00,
2013-05-11 11:30:00,71.6,60.0,30.10,NNE,22,4.0,7.0,67,0.00,,,0.00,830,weatherlink.com 1.10,2013-05-11 18:30:00,
2013-05-11 11:45:00,73.8,60.0,30.10,NNE,32,0.0,7.0,62,0.00,,,0.00,837,weatherlink.com 1.10,2013-05-11 18:45:00,
2013-05-11 12:00:00,75.1,62.0,30.09,NNE,19,3.0,10.0,63,0.00,,,0.00,874,weatherlink.com 1.10,2013-05-11 19:00:00,
2013-05-11 12:15:00,76.7,63.0,30.09,NNE,30,4.0,8.0,62,0.00,,,0.00,837,weatherlink.com 1.10,2013-05-11 19:15:00,
2013-05-11 12:30:00,76.8,61.0,30.09,South,190,5.0,10.0,59,0.00,,,0.00,919,weatherlink.com 1.10,2013-05-11 19:30:00,
2013-05-11 12:45:00,76.1,61.0,30.08,South,188,6.0,9.0,59,0.00,,,0.00,889,weatherlink.com 1.10,2013-05-11 19:45:00,
2013-05-11 13:00:00,77.6,61.0,30.08,SE,139,3.0,8.0,57,0.00,,,0.00,882,weatherlink.com 1.10,2013-05-11 20:00:00,
2013-05-11 13:15:00,79.0,61.0,30.07,SSE,165,8.0,8.0,55,0.00,,,0.00,944,weatherlink.com 1.10,2013-05-11 20:15:00,
2013-05-11 13:30:00,79.6,62.0,30.07,South,185,4.0,8.0,55,0.00,,,0.00,944,weatherlink.com 1.10,2013-05-11 20:30:00,
2013-05-11 13:45:00,79.3,61.0,30.07,SE,130,5.0,9.0,54,0.00,,,0.00,742,weatherlink.com 1.10,2013-05-11 20:45:00,
2013-05-11 14:00:00,79.7,62.0,30.07,SE,141,1.0,9.0,54,0.00,,,0.00,775,weatherlink.com 1.10,2013-05-11 21:00:00,
2013-05-11 14:15:00,80.7,59.0,30.07,South,172,7.0,10.0,48,0.00,,,0.00,817,weatherlink.com 1.10,2013-05-11 21:15:00,
2013-05-11 14:30:00,81.9,60.0,30.07,SSW,201,9.0,9.0,48,0.00,,,0.00,853,weatherlink.com 1.10,2013-05-11 21:30:00,
2013-05-11 14:45:00,82.0,62.0,30.06,South,189,2.0,8.0,50,0.00,,,0.00,858,weatherlink.com 1.10,2013-05-11 21:45:00,
2013-05-11 15:00:00,81.3,60.0,30.06,SW,230,5.0,9.0,49,0.00,,,0.00,629,weatherlink.com 1.10,2013-05-11 22:00:00,
2013-05-11 15:15:00,82.0,62.0,30.05,South,169,3.0,10.0,50,0.00,,,0.00,872,weatherlink.com 1.10,2013-05-11 22:15:00,
2013-05-11 15:30:00,83.0,63.0,30.05,West,261,3.0,9.0,51,0.00,,,0.00,643,weatherlink.com 1.10,2013-05-11 22:30:00,
2013-05-11 15:45:00,82.8,59.0,30.05,SSW,194,2.0,8.0,45,0.00,,,0.00,745,weatherlink.com 1.10,2013-05-11 22:45:00,
2013-05-11 16:00:00,84.0,59.0,30.04,SSW,192,3.0,9.0,43,0.00,,,0.00,677,weatherlink.com 1.10,2013-05-11 23:00:00,
2013-05-11 16:15:00,83.4,60.0,30.04,SW,215,4.0,10.0,45,0.00,,,0.00,388,weatherlink.com 1.10,2013-05-11 23:15:00,
2013-05-11 16:30:00,81.2,58.0,30.04,West,263,4.0,10.0,45,0.00,,,0.00,313,weatherlink.com 1.10,2013-05-11 23:30:00,
2013-05-11 16:46:00,81.3,60.0,30.04,SSW,192,3.0,5.0,49,0.00,,,0.00,570,weatherlink.com 1.10,2013-05-11 23:46:00,
2013-05-11 17:01:00,80.2,60.0,30.04,SSE,155,6.0,9.0,50,0.00,,,0.00,585,weatherlink.com 1.10,2013-05-12 00:01:00,
2013-05-11 17:16:00,78.7,60.0,30.04,SSE,161,5.0,8.0,52,0.00,,,0.00,485,weatherlink.com 1.10,2013-05-12 00:16:00,
2013-05-11 17:31:00,76.8,59.0,30.04,SSE,147,6.0,9.0,54,0.00,,,0.00,274,weatherlink.com 1.10,2013-05-12 00:31:00,
2013-05-11 17:46:00,74.8,59.0,30.03,SSE,158,5.0,8.0,58,0.00,,,0.00,332,weatherlink.com 1.10,2013-05-12 00:46:00,
2013-05-11 18:01:00,76.5,59.0,30.04,SSE,154,0.0,6.0,55,0.00,,,0.00,262,weatherlink.com 1.10,2013-05-12 01:01:00,
2013-05-11 18:16:00,75.5,59.0,30.04,South,178,0.0,3.0,57,0.00,,,0.00,223,weatherlink.com 1.10,2013-05-12 01:16:00,
2013-05-11 18:31:00,71.6,57.0,30.04,SSE,158,4.0,7.0,60,0.00,,,0.00,172,weatherlink.com 1.10,2013-05-12 01:31:00,
2013-05-11 18:46:00,70.4,58.0,30.04,NW,311,0.0,3.0,66,0.00,,,0.00,178,weatherlink.com 1.10,2013-05-12 01:46:00,
2013-05-11 19:01:00,70.4,58.0,30.03,WNW,300,0.0,2.0,65,0.00,,,0.00,225,weatherlink.com 1.10,2013-05-12 02:01:00,
2013-05-11 19:16:00,70.8,58.0,30.04,WNW,301,0.0,2.0,64,0.00,,,0.00,163,weatherlink.com 1.10,2013-05-12 02:16:00,
2013-05-11 19:31:00,71.3,57.0,30.04,WNW,303,1.0,4.0,61,0.00,,,0.00,76,weatherlink.com 1.10,2013-05-12 02:31:00,
2013-05-11 19:46:00,68.6,56.0,30.04,NW,306,0.0,1.0,64,0.00,,,0.00,47,weatherlink.com 1.10,2013-05-12 02:46:00,
2013-05-11 20:01:00,65.2,55.0,30.05,NW,306,0.0,1.0,69,0.00,,,0.00,25,weatherlink.com 1.10,2013-05-12 03:01:00,
2013-05-11 20:16:00,62.7,53.0,30.05,NW,306,0.0,0.0,71,0.00,,,0.00,0,weatherlink.com 1.10,2013-05-12 03:16:00,
2013-05-11 20:31:00,60.0,52.0,30.06,NW,306,0.0,1.0,75,0.00,,,0.00,0,weatherlink.com 1.10,2013-05-12 03:31:00,
2013-05-11 20:46:00,57.0,51.0,30.06,NW,306,0.0,0.0,80,0.00,,,0.00,0,weatherlink.com 1.10,2013-05-12 03:46:00,
2013-05-11 21:01:00,55.2,51.0,30.07,NW,306,0.0,0.0,84,0.00,,,0.00,0,weatherlink.com 1.10,2013-05-12 04:01:00,
2013-05-11 21:16:00,54.1,50.0,30.07,NW,306,0.0,0.0,86,0.00,,,0.00,0,weatherlink.com 1.10,2013-05-12 04:16:00,
2013-05-11 21:31:00,53.1,49.0,30.08,NW,306,0.0,0.0,87,0.00,,,0.00,0,weatherlink.com 1.10,2013-05-12 04:31:00,
2013-05-11 23:42:00,48.4,46.0,30.11,NW,306,0.0,0.0,92,0.00,,,0.00,0,weatherlink.com 1.10,2013-05-12 06:42:00,